Regional Weather Roundup
Issued by NWS

Home | Current Version | Previous Version | Graphics & Text | Print | Product List | Glossary On
Versions: 1 2 3 4 5 6 7 8 9 10 11 12 13 14 15 16 17 18 19 20 21 22 23 24 25 26 27 28 29 30 31 32 33 34 35 36 37 38 39 40 41 42 43 44 45 46 47 48 49 50
000
ASUS43 KLSX 191307
RWRMO

WEATHER SUMMARY FOR MISSOURI
NATIONAL WEATHER SERVICE SPRINGFIELD MO
800 AM CDT THU OCT 19 2017

NOTE: "FAIR" INDICATES FEW OR NO CLOUDS BELOW 12,000 FEET WITH NO
       SIGNIFICANT WEATHER AND/OR OBSTRUCTIONS TO VISIBILITY.
       CURRENT SKY AND/OR WEATHER CONDITIONS ARE NOT AVAILABLE FOR
       CHILLICOTHE AND FARMINGTON.

MOZ001>031-035>038-043-044-053-054-191400-
...NORTHERN AND WESTERN MISSOURI...

CITY           SKY/WX    TMP DP  RH WIND       PRES   REMARKS
KANSAS CTY INT PTCLDY    49  47  93 S9        30.09S
KANSAS C DTWN  CLEAR     53  49  86 CALM      30.09S
LEE`S SUMMIT   CLEAR     54  48  80 SW7       30.11R
ST JOSEPH      PTCLDY    41  41 100 CALM      30.09R FOG
CHILLICOTHE      N/A     47  47 100 CALM      30.12R
KIRKSVILLE     CLEAR     48  48 100 S5        30.13R

$$
MOZ066>068-077>081-088>096-101>105-191400-
...SOUTHWEST MISSOURI...

CITY           SKY/WX    TMP DP  RH WIND       PRES   REMARKS
SPRINGFIELD    CLEAR     52  48  86 S9        30.17R
JOPLIN         CLEAR     54  49  83 S8        30.16S
BRANSON        PTCLDY    52  48  87 S6        30.21R

$$
MOZ032>034-039>042-045>050-055>058-069>072-191400-
...CENTRAL MISSOURI...

CITY           SKY/WX    TMP DP  RH WIND       PRES   REMARKS
COLUMBIA       CLEAR     50  47  89 S7        30.15R
JEFFERSON CITY CLEAR     48  45  89 SE6       30.16R
ROLLA          CLEAR     54  49  83 S10       30.18R
SEDALIA        CLEAR     57  50  77 SW10      30.14R
WHITEMAN AFB   CLEAR     50  46  86 S9        30.09R
WARRENSBURG    CLEAR     50  45  81 S5        30.12R
OSAGE BEACH    CLEAR     50  47  89 S3        30.17R

$$
MOZ051-052-059>065-191400-
...EAST CENTRAL MISSOURI...

CITY           SKY/WX    TMP DP  RH WIND       PRES   REMARKS
ST LOUIS INTL  PTCLDY    58  49  72 CALM      30.17R
SPIRIT OF STL  CLEAR     48  48 100 CALM      30.16R
ST CHARLES     CLEAR     49  47  93 E3        30.17R FOG

$$
MOZ072>076-082>087-097>100-106>115-191400-
...SOUTH CENTRAL AND SOUTHEAST MISSOURI...

CITY           SKY/WX    TMP DP  RH WIND       PRES   REMARKS
CAPE GIRARDEAU CLEAR     52  47  83 S5        30.22S
FARMINGTON     CLEAR     53  47  79 SE3       30.21R
POPLAR BLUFF   CLEAR     46  45  96 N3        30.23R
WEST PLAINS    CLEAR     46  45  96 CALM      30.22R

$$



USA.gov is the U.S. government's official web portal to all federal, state and local government web resources and services.